{"data":{"norad_id":68991,"intl_designator":"2026-100M","name":"YAM-11","alt_names":[],"object_type":"PAYLOAD","status":"ACTIVE","operator":null,"country":"US","launch_date":"2026-05-03","launch_site_code":"AFWTR","launch_vehicle":null,"mission":null,"orbit_class":"UNKNOWN","rcs_meters":null,"size_class":null,"mass_kg":null,"dimensions":null,"purposes":[],"wikipedia_slug":null,"has_3d_model":false,"image_url":null,"decayed_at":null,"tle_current":{"epoch":"2026-05-25T03:24:08.418240Z","epoch_age_seconds":53067,"freshness":"FRESH","line1":"1 68991U 26100M   26145.14176410  .00001408  00000+0  14778-3 0  9996","line2":"2 68991  97.7389  43.0081 0002335 197.1083 163.0057 14.91058976  3269","mean_motion":14.91058976,"eccentricity":0.0002335,"inclination_deg":97.7389,"raan_deg":43.0081,"arg_perigee_deg":197.1083,"mean_anomaly_deg":163.0057,"bstar":0.00014778,"rev_number":326,"period_min":96.575656843771,"perigee_km":593.0041138441,"apogee_km":596.2603970864,"semimajor_km":6972.7692554653,"source":"CELESTRAK","updated_at":"2026-05-25T13:38:08.809416Z"}}}